CAPE
2079 1550 1025 231 0 0 0 31 68 69 1 0 0 0 30 0 0 6 63 56 30 1
1607 1056 104 0 0 0 0 91 220 33 0 0 0 0 0 0 0 0 0 0 11 7
1281 264 3 2 9 5 22 152 93 24 0 0 0 0 0 0 0 0 0 0 0 0
807 60 33 2 27 27 263 140 50 32 3 0 0 0 0 0 0 0 0 0 0 0
346 0 17 8 70 426 304 170 51 36 20 14 0 0 0 0 0 0 0 0 0 0
116 36 205 694 649 521 432 388 192 24 24 0 0 0 0 0 0 0 0 0 0 0
688 768 764 539 514 450 541 502 222 8 0 0 4 0 0 0 0 0 0 0 0 0
882 647 465 465 454 418 250 72 2 0 0 0 0 0 0 0 0 0 0 0 0 0
638 444 417 451 249 166 37 0 0 0 0 0 0 0 0 0 0 0 0 0 0 0
485 265 269 260 117 49 0 0 0 0 0 0 0 0 0 0 0 0 0 0 0 0
296 147 57 15 2 0 0 0 0 0 0 0 0 0 0 0 0 0 0 0 0 0
0 0 0 0 0 0 0 0 0 0 0 0 0 0 0 0 0 0 0 0 0 0
0 0 0 0 0 0 0 0 0 0 0 0 0 0 0 0 0 0 0 0 0 0
0 0 0 0 0 0 0 0 0 0 0 0 0 0 0 0 0 0 0 0 0 0
CIN
-12 -33 -52 -120 -38 0 0 -213 -133 -115 -32 0 0 0 -138 -3 0 -7 -60 -48 -77 -29
-44 -80 -186 0 0 0 0 -84 -44 -183 0 0 0 0 0 0 0 0 0 0 -81 -77
-66 -159 -145 -50 -164 -136 -79 -68 -68 -132 0 0 0 0 0 0 0 0 0 0 0 0
-107 -197 -253 -123 -124 -143 -72 -65 -66 -95 -46 0 0 0 0 0 0 0 0 0 0 0
-141 -2 -185 -158 -146 -61 -34 -45 -90 -68 -104 -107 0 0 0 0 0 0 0 0 0 0
-164 -162 -121 -42 -33 -39 -36 -41 -47 -122 -94 0 0 0 0 0 0 0 0 0 0 0
-65 -51 -38 -38 -39 -50 -50 -38 -43 -30 0 0 -67 0 0 0 0 0 0 0 0 0
-51 -48 -43 -37 -57 -52 -64 -74 -27 0 0 0 0 0 0 0 0 0 0 0 0 0
-61 -73 -59 -59 -90 -106 -85 0 0 0 0 0 0 0 0 0 0 0 0 0 0 0
-104 -94 -102 -133 -193 -168 0 0 0 0 0 0 0 0 0 0 0 0 0 0 0 0
-98 -110 -175 -201 -108 0 0 0 0 0 0 0 0 0 0 0 0 0 0 0 0 0
0 0 0 0 0 0 0 0 0 0 0 0 0 0 0 0 0 0 0 0 0 0
0 0 0 0 0 0 0 0 0 0 0 0 0 0 0 0 0 0 0 0 0 0
0 0 0 0 0 0 0 0 0 0 0 0 0 0 0 0 0 0 0 0 0 0
Wind_Speed
13 14 15 16 16 18 19 20 21 23 24 25 26 26 26 27 28 27 25 11 29 25
14 13 14 14 16 17 18 20 21 23 25 26 27 27 26 28 30 30 30 30 28 24
14 14 14 14 14 16 18 19 22 23 25 27 27 27 27 29 31 31 30 29 29 28
14 16 16 15 14 16 17 20 23 23 25 27 28 26 27 30 31 32 32 31 30 30
16 16 14 15 16 17 19 22 24 24 25 27 28 25 27 30 31 32 33 32 31 30
13 13 15 16 16 19 20 22 24 26 26 28 29 26 27 28 30 32 33 32 31 31
13 14 14 16 18 20 21 23 25 26 28 28 29 27 28 30 32 33 33 31 30 31
12 13 14 16 19 21 22 23 25 26 27 28 29 30 30 31 32 32 31 31 31 31
11 14 15 17 19 20 22 24 26 27 27 28 29 30 30 29 29 30 32 33 34 33
11 14 15 15 18 22 24 25 25 24 25 26 28 30 30 30 31 32 34 34 34 34
12 14 14 17 19 19 20 22 23 22 23 25 28 31 33 32 32 33 33 34 35 34
13 16 16 18 20 22 22 23 20 20 23 26 29 34 34 33 33 34 34 34 35 36
14 15 17 19 22 22 21 19 19 21 24 27 30 33 35 34 33 34 35 35 36 37
14 16 18 19 18 18 19 19 20 22 24 26 30 31 33 34 34 35 36 37 37 38
Wind_Direction
80 64 47 41 39 39 34 28 14 357 352 343 341 341 347 354 346 335 327 288 8 26
81 63 50 39 41 32 23 18 12 3 354 350 351 350 358 351 345 345 349 349 9 25
86 71 63 52 28 9 2 6 7 2 356 351 349 354 356 353 348 346 343 345 347 1
86 89 89 79 50 2 1 0 2 360 354 347 346 355 355 353 349 347 342 345 346 344
95 94 92 77 59 26 6 360 356 353 349 344 346 360 353 350 347 345 341 344 346 343
84 71 59 54 40 15 6 357 351 347 347 344 341 354 349 349 346 345 343 347 346 345
66 54 47 27 14 10 6 358 351 346 344 343 341 350 348 346 343 343 345 348 348 344
58 40 26 12 6 6 1 357 353 352 348 347 347 343 342 343 343 345 348 349 346 346
49 28 14 3 1 360 355 354 349 349 351 351 351 349 352 354 352 347 344 341 339 338
46 36 30 27 8 353 346 349 345 356 357 357 356 354 354 352 349 345 341 338 337 336
37 33 41 25 16 19 11 359 349 358 5 4 359 352 348 350 351 349 347 345 342 340
23 14 18 17 14 7 3 357 6 11 4 359 353 347 350 352 351 349 348 348 346 343
13 14 11 7 2 4 10 17 20 11 5 0 354 350 350 352 354 352 351 350 348 345
19 10 7 5 15 16 15 17 11 7 4 2 358 358 0 1 1 358 355 352 349 347